DW7448 Weather Reports


Display with metric or nautical units.
time (UTC)temp
F
wind
direction
speed
MPH
gust
MPH
rain 1hr
in
rain 24hr
in
rain mn
in
humidity
%
barometer
mb
20190116161808 40 195 0.0 0.0 0.00 0.00 0.00 83 1009.5
20190116160311 40 179 0.0 0.0 0.00 0.00 0.00 83 1009.5
20190116154808 41 200 0.0 0.0 0.00 0.00 0.00 82 1009.7
20190116153308 41 184 0.0 2.0 0.00 0.00 0.00 82 1009.7
20190116151808 41 198 0.0 9.0 0.00 0.00 0.00 81 1009.8
20190116150308 41 194 0.0 9.0 0.00 0.00 0.00 81 1010.0
20190116144808 42 177 0.0 6.0 0.00 0.00 0.00 80 1010.0
20190116143311 42 183 0.0 0.0 0.00 0.00 0.00 80 1010.2
20190116141808 42 199 0.0 8.0 0.00 0.00 0.00 80 1010.3
20190116140308 43 211 0.0 0.0 0.00 0.00 0.00 80 1010.7
20190116134808 43 186 0.0 8.0 0.00 0.00 0.00 80 1010.9
20190116133308 43 194 0.0 7.0 0.00 0.00 0.00 80 1011.1
20190116131808 43 222 0.0 8.0 0.00 0.00 0.00 79 1011.4
20190116130309 43 188 0.0 7.0 0.00 0.00 0.00 79 1011.6
20190116124808 43 221 0.0 8.0 0.00 0.00 0.00 80 1011.6
20190116123308 42 193 0.0 8.0 0.00 0.00 0.00 80 1011.9
20190116121808 42 178 0.0 7.0 0.00 0.00 0.00 81 1012.3
20190116120308 42 206 0.0 1.0 0.00 0.00 0.00 81 1012.5
20190116114808 42 202 0.0 6.0 0.00 0.00 0.00 81 1012.8
20190116113308 41 195 0.0 8.0 0.00 0.00 0.00 82 1013.2
20190116111808 41 193 0.0 4.0 0.00 0.00 0.00 83 1013.5
20190116110308 41 199 0.0 0.0 0.00 0.00 0.00 84 1013.7
20190116104808 40 198 0.0 0.0 0.00 0.00 0.00 84 1014.0
20190116103308 41 208 0.0 0.0 0.00 0.00 0.00 85 1014.4
20190116101808 40 200 0.0 0.0 0.00 0.00 0.00 85 1014.5
20190116100308 40 215 0.0 0.0 0.00 0.00 0.00 85 1014.9
20190116094811 40 205 0.0 0.0 0.00 0.00 0.00 86 1014.9
20190116093308 39 203 0.0 0.0 0.00 0.00 0.00 87 1015.1
20190116091808 39 212 0.0 0.0 0.00 0.00 0.00 87 1015.1
20190116090311 39 227 0.0 0.0 0.00 0.00 0.00 88 1015.3
20190116084808 38 225 0.0 0.0 0.00 0.00 0.00 88 1015.5
20190116083308 38 205 0.0 0.0 0.00 0.00 0.00 87 1015.5
20190116081811 38 214 0.0 0.0 0.00 0.00 0.00 87 1015.6
20190116080314 38 201 0.0 0.0 0.00 0.00 0.00 87 1015.7
20190116074808 38 211 0.0 0.0 0.00 0.00 0.00 87 1015.8
20190116073308 38 226 0.0 0.0 0.00 0.00 0.00 87 1015.8
20190116071811 38 223 0.0 0.0 0.00 0.00 0.00 86 1016.0
20190116070308 38 223 0.0 0.0 0.00 0.00 0.00 86 1015.9
20190116064808 38 230 0.0 0.0 0.00 0.00 0.00 86 1016.1
20190116063308 38 245 0.0 5.0 0.00 0.00 0.00 85 1016.2
20190116061808 38 223 0.0 12.0 0.00 0.00 0.00 85 1016.2
20190116060308 38 238 0.0 9.0 0.00 0.00 0.00 86 1016.4
20190116054808 38 227 0.0 5.0 0.00 0.00 0.00 86 1016.5
20190116053308 38 257 0.0 10.0 0.00 0.00 0.00 86 1016.7
20190116051811 39 253 9.0 11.0 0.00 0.00 0.00 86 1017.0
20190116050311 39 237 0.0 9.0 0.00 0.00 0.00 86 1017.1
20190116044808 39 229 0.0 7.0 0.00 0.00 0.00 86 1017.2
20190116043314 39 250 0.0 0.0 0.00 0.00 0.00 86 1017.3
20190116041808 39 252 0.0 7.0 0.00 0.00 0.00 86 1017.4
20190116040308 39 225 0.0 7.0 0.00 0.00 0.00 86 1017.6
20190116034811 39 221 0.0 3.0 0.00 0.00 0.00 86 1017.6
20190116033308 39 242 0.0 5.0 0.00 0.00 0.00 86 1017.8
20190116031808 39 227 0.0 0.0 0.00 0.00 0.00 86 1017.9
20190116030308 39 259 0.0 3.0 0.00 0.00 0.00 85 1018.3
20190116024808 40 290 0.0 5.0 0.00 0.00 0.00 84 1018.5
20190116023311 40 257 0.0 9.0 0.00 0.00 0.00 84 1018.6
20190116021808 40 245 0.0 8.0 0.00 0.00 0.00 85 1018.8
20190116020311 40 232 0.0 6.0 0.00 0.00 0.00 86 1018.8
20190116014808 40 229 0.0 6.0 0.00 0.00 0.00 85 1018.8
20190116013308 40 220 0.0 7.0 0.00 0.00 0.00 85 1018.9
20190116011814 40 221 0.0 7.0 0.00 0.00 0.00 86 1019.1
20190116010308 40 235 0.0 10.0 0.00 0.00 0.00 86 1019.2
20190116004811 40 227 0.0 7.0 0.00 0.00 0.00 87 1019.2
20190116003308 40 235 0.0 0.0 0.00 0.00 0.00 87 1019.4
20190116001808 40 231 0.0 0.0 0.00 0.00 0.00 88 1019.4
20190116000308 40 236 0.0 2.0 0.00 0.00 0.00 88 1019.7
20190115234811 40 245 0.0 0.0 0.00 0.00 0.00 87 1019.9
20190115233308 41 232 0.0 9.0 0.00 0.00 0.00 87 1020.0
20190115231809 41 234 0.0 9.0 0.00 0.00 0.00 87 1020.0
20190115230308 41 232 0.0 9.0 0.00 0.00 0.00 88 1020.1
20190115224808 41 238 0.0 0.0 0.00 0.00 0.00 89 1020.3
20190115223311 41 231 0.0 0.0 0.00 0.00 0.00 90 1020.4
20190115221811 41 238 0.0 0.0 0.00 0.00 0.00 90 1020.5
20190115220308 41 245 0.0 0.0 0.00 0.00 0.00 91 1020.6
20190115214808 41 236 0.0 0.0 0.00 0.00 0.00 91 1020.6
20190115213308 41 238 0.0 0.0 0.00 0.00 0.00 92 1020.7
20190115211808 41 227 0.0 0.0 0.00 0.00 0.00 92 1020.9
20190115210308 41 238 0.0 0.0 0.00 0.00 0.00 91 1020.9
20190115204808 41 232 0.0 0.0 0.00 0.00 0.00 91 1020.9
20190115203311 41 291 0.0 0.0 0.00 0.00 0.00 91 1021.0
20190115201808 41 248 0.0 0.0 0.00 0.00 0.00 91 1021.0
20190115200308 41 235 0.0 0.0 0.00 0.00 0.00 91 1021.0
20190115194808 41 233 0.0 0.0 0.00 0.00 0.00 91 1021.1
20190115193308 41 259 0.0 0.0 0.00 0.00 0.00 91 1021.2
20190115191812 41 251 0.0 0.0 0.00 0.00 0.00 91 1021.3
20190115190308 41 265 0.0 0.0 0.00 0.00 0.00 91 1021.3
20190115184808 41 259 0.0 0.0 0.00 0.00 0.00 91 1021.4
20190115183311 41 254 0.0 0.0 0.00 0.00 0.00 91 1021.4
20190115181808 41 273 0.0 0.0 0.00 0.00 0.00 90 1021.4
20190115180308 41 247 0.0 0.0 0.00 0.00 0.00 91 1021.5
20190115174808 41 240 0.0 0.0 0.00 0.00 0.00 90 1021.5
20190115173308 41 260 0.0 0.0 0.00 0.00 0.00 90 1021.5
20190115171808 41 247 0.0 0.0 0.00 0.00 0.00 90 1021.5
20190115170308 42 252 0.0 0.0 0.00 0.00 0.00 90 1021.6
20190115164811 42 276 0.0 9.0 0.00 0.00 0.00 89 1021.6
20190115163308 42 243 0.0 0.0 0.00 0.00 0.00 89 1021.7